Time,TemperatureF,DewpointF,PressureIn,WindDirection,WindDirectionDegrees,WindSpeedMPH,WindSpeedGustMPH,Humidity,HourlyPrecipIn,Conditions,Clouds,dailyrainin,SoftwareType,DateUTC
2013-07-09 00:03:00,75.9,69.7,27.02,SE,135,1.1,0.0,81,0.00,RA,OVC,0.00,WeatherDisplay:10.37,2013-07-09 05:03:00,
2013-07-09 00:08:00,75.7,69.5,27.01,South,180,1.1,0.0,81,0.00,RA,OVC,0.00,WeatherDisplay:10.37,2013-07-09 05:08:00,
2013-07-09 00:13:00,75.6,69.3,27.02,East,90,1.1,0.0,81,0.00,CLR,OVC,0.00,WeatherDisplay:10.37,2013-07-09 05:13:00,
2013-07-09 00:18:00,75.4,68.8,27.02,East,90,0.0,0.0,80,0.00,CLR,OVC,0.00,WeatherDisplay:10.37,2013-07-09 05:18:00,
2013-07-09 00:23:00,75.4,68.8,27.03,North,0,0.0,0.0,80,0.00,CLR,OVC,0.00,WeatherDisplay:10.37,2013-07-09 05:23:00,
2013-07-09 00:28:00,75.2,68.6,27.03,NW,315,0.0,0.0,80,0.00,CLR,OVC,0.00,WeatherDisplay:10.37,2013-07-09 05:28:00,
2013-07-09 00:33:00,75.2,68.6,27.03,SW,225,0.0,0.0,80,0.00,CLR,OVC,0.00,WeatherDisplay:10.37,2013-07-09 05:33:00,
2013-07-09 00:38:00,75.0,69.1,27.03,SE,135,1.1,0.0,82,0.00,CLR,OVC,0.00,WeatherDisplay:10.37,2013-07-09 05:38:00,
2013-07-09 00:43:00,74.8,69.3,27.03,SW,225,1.1,0.0,83,0.00,CLR,OVC,0.00,WeatherDisplay:10.37,2013-07-09 05:43:00,
2013-07-09 00:48:00,74.7,68.8,27.03,East,90,0.0,0.0,82,0.00,CLR,OVC,0.00,WeatherDisplay:10.37,2013-07-09 05:48:00,
2013-07-09 00:53:00,74.5,68.6,27.03,East,90,0.0,0.0,82,0.00,CLR,OVC,0.00,WeatherDisplay:10.37,2013-07-09 05:53:00,
2013-07-09 00:58:00,74.5,68.6,27.04,East,90,0.0,0.0,82,0.00,CLR,OVC,0.00,WeatherDisplay:10.37,2013-07-09 05:58:00,
2013-07-09 01:03:00,74.5,68.6,27.04,NW,315,0.0,0.0,82,0.00,CLR,OVC,0.00,WeatherDisplay:10.37,2013-07-09 06:03:00,
2013-07-09 01:08:00,74.3,68.1,27.04,North,0,0.0,0.0,81,0.00,CLR,OVC,0.00,WeatherDisplay:10.37,2013-07-09 06:08:00,
2013-07-09 01:13:00,74.1,67.9,27.04,North,0,0.0,0.0,81,0.00,CLR,OVC,0.00,WeatherDisplay:10.37,2013-07-09 06:13:00,
2013-07-09 01:18:00,74.1,67.9,27.05,North,0,0.0,0.0,81,0.00,CLR,OVC,0.00,WeatherDisplay:10.37,2013-07-09 06:18:00,
2013-07-09 01:23:00,74.1,67.9,27.05,North,0,0.0,0.0,81,0.00,CLR,OVC,0.00,WeatherDisplay:10.37,2013-07-09 06:23:00,
2013-07-09 01:28:00,73.8,67.9,27.05,North,0,0.0,0.0,82,0.00,CLR,OVC,0.00,WeatherDisplay:10.37,2013-07-09 06:28:00,
2013-07-09 01:33:00,73.8,67.9,27.05,NW,315,0.0,0.0,82,0.00,CLR,OVC,0.00,WeatherDisplay:10.37,2013-07-09 06:33:00,
2013-07-09 01:38:00,73.8,67.9,27.05,NW,315,0.0,0.0,82,0.00,CLR,OVC,0.00,WeatherDisplay:10.37,2013-07-09 06:38:00,
2013-07-09 01:43:00,73.8,67.9,27.05,NW,315,0.0,0.0,82,0.00,CLR,OVC,0.00,WeatherDisplay:10.37,2013-07-09 06:43:00,
2013-07-09 01:48:00,73.8,67.9,27.04,South,180,0.0,0.0,82,0.00,CLR,OVC,0.00,WeatherDisplay:10.37,2013-07-09 06:48:00,
2013-07-09 01:53:00,73.6,68.4,27.04,South,180,0.0,0.0,84,0.00,CLR,OVC,0.00,WeatherDisplay:10.37,2013-07-09 06:53:00,
2013-07-09 01:58:00,73.2,67.7,27.05,NW,315,0.0,0.0,83,0.00,CLR,OVC,0.00,WeatherDisplay:10.37,2013-07-09 06:58:00,
2013-07-09 02:03:00,72.9,67.4,27.05,NE,45,0.0,0.0,83,0.00,CLR,OVC,0.00,WeatherDisplay:10.37,2013-07-09 07:03:00,
2013-07-09 02:08:00,72.7,67.2,27.05,NW,315,0.0,0.0,83,0.00,CLR,OVC,0.00,WeatherDisplay:10.37,2013-07-09 07:08:00,
2013-07-09 02:13:00,72.5,67.4,27.06,NW,315,3.5,3.5,84,0.00,CLR,OVC,0.00,WeatherDisplay:10.37,2013-07-09 07:13:00,
2013-07-09 02:18:00,72.3,67.2,27.05,NW,315,2.3,2.3,84,0.00,CLR,OVC,0.00,WeatherDisplay:10.37,2013-07-09 07:18:00,
2013-07-09 02:23:00,72.3,67.2,27.06,North,0,2.3,2.3,84,0.00,CLR,OVC,0.00,WeatherDisplay:10.37,2013-07-09 07:23:00,
2013-07-09 02:28:00,72.0,66.9,27.05,NW,315,3.5,3.5,84,0.00,CLR,OVC,0.00,WeatherDisplay:10.37,2013-07-09 07:28:00,
2013-07-09 02:33:00,71.6,66.5,27.05,NW,315,1.1,1.6,84,0.00,CLR,OVC,0.00,WeatherDisplay:10.37,2013-07-09 07:33:00,
2013-07-09 02:38:00,71.2,66.8,27.05,NW,315,2.3,2.3,86,0.00,CLR,OVC,0.00,WeatherDisplay:10.37,2013-07-09 07:38:00,
2013-07-09 02:43:00,71.1,66.7,27.06,NW,315,3.5,3.5,86,0.00,CLR,OVC,0.00,WeatherDisplay:10.37,2013-07-09 07:43:00,
2013-07-09 02:48:00,70.7,66.6,27.05,NW,315,2.3,2.3,87,0.00,CLR,OVC,0.00,WeatherDisplay:10.37,2013-07-09 07:48:00,
2013-07-09 02:53:00,70.5,66.5,27.05,NW,315,1.1,1.1,87,0.00,CLR,OVC,0.00,WeatherDisplay:10.37,2013-07-09 07:53:00,
2013-07-09 02:58:00,70.3,66.6,27.05,North,0,1.1,0.0,88,0.00,CLR,OVC,0.00,WeatherDisplay:10.37,2013-07-09 07:58:00,
2013-07-09 03:03:00,70.3,66.6,27.05,NW,315,0.0,0.0,88,0.00,CLR,OVC,0.00,WeatherDisplay:10.37,2013-07-09 08:03:00,
2013-07-09 03:08:00,70.3,66.6,27.05,NW,315,0.0,0.0,88,0.00,CLR,OVC,0.00,WeatherDisplay:10.37,2013-07-09 08:08:00,
2013-07-09 03:13:00,70.2,66.4,27.06,North,0,1.1,0.0,88,0.00,CLR,OVC,0.00,WeatherDisplay:10.37,2013-07-09 08:13:00,
2013-07-09 03:18:00,70.2,66.4,27.06,NW,315,1.1,0.0,88,0.00,CLR,OVC,0.00,WeatherDisplay:10.37,2013-07-09 08:18:00,
2013-07-09 03:23:00,70.2,66.4,27.06,NW,315,0.0,0.0,88,0.00,CLR,OVC,0.00,WeatherDisplay:10.37,2013-07-09 08:23:00,
2013-07-09 03:28:00,70.2,66.4,27.06,NW,315,0.0,0.0,88,0.00,CLR,OVC,0.00,WeatherDisplay:10.37,2013-07-09 08:28:00,
2013-07-09 03:33:00,70.2,66.4,27.06,North,0,0.0,0.0,88,0.00,CLR,OVC,0.00,WeatherDisplay:10.37,2013-07-09 08:33:00,
2013-07-09 03:38:00,70.2,66.4,27.06,North,0,0.0,0.0,88,0.00,CLR,OVC,0.00,WeatherDisplay:10.37,2013-07-09 08:38:00,
2013-07-09 03:43:00,70.2,66.4,27.06,NW,315,1.1,0.0,88,0.00,CLR,OVC,0.00,WeatherDisplay:10.37,2013-07-09 08:43:00,
2013-07-09 03:48:00,70.2,66.4,27.06,NW,315,1.1,0.0,88,0.00,CLR,OVC,0.00,WeatherDisplay:10.37,2013-07-09 08:48:00,
2013-07-09 03:53:00,70.2,66.8,27.06,NW,315,1.1,0.0,89,0.00,CLR,OVC,0.00,WeatherDisplay:10.37,2013-07-09 08:53:00,
2013-07-09 03:58:00,70.0,66.6,27.06,North,0,1.1,0.0,89,0.00,CLR,OVC,0.00,WeatherDisplay:10.37,2013-07-09 08:58:00,
2013-07-09 04:03:00,70.0,66.6,27.06,NW,315,0.0,0.0,89,0.00,CLR,OVC,0.00,WeatherDisplay:10.37,2013-07-09 09:03:00,
2013-07-09 04:08:00,70.0,66.6,27.05,NW,315,0.0,0.0,89,0.00,CLR,OVC,0.00,WeatherDisplay:10.37,2013-07-09 09:08:00,
2013-07-09 04:13:00,70.0,66.6,27.06,NW,315,1.1,1.1,89,0.00,CLR,OVC,0.00,WeatherDisplay:10.37,2013-07-09 09:13:00,
2013-07-09 04:18:00,69.8,66.4,27.05,NW,315,1.1,1.1,89,0.00,CLR,OVC,0.00,WeatherDisplay:10.37,2013-07-09 09:18:00,
2013-07-09 04:23:00,69.8,66.4,27.05,North,0,1.1,0.0,89,0.00,CLR,OVC,0.00,WeatherDisplay:10.37,2013-07-09 09:23:00,
2013-07-09 04:28:00,69.6,66.9,27.05,North,0,2.3,2.3,91,0.00,CLR,OVC,0.00,WeatherDisplay:10.37,2013-07-09 09:28:00,
2013-07-09 04:33:00,69.4,66.7,27.05,North,0,3.5,3.5,91,0.00,CLR,OVC,0.00,WeatherDisplay:10.37,2013-07-09 09:33:00,
2013-07-09 04:38:00,69.3,66.5,27.05,NW,315,1.1,1.6,91,0.00,CLR,OVC,0.00,WeatherDisplay:10.37,2013-07-09 09:38:00,
2013-07-09 04:43:00,68.9,66.5,27.05,NW,315,1.1,1.1,92,0.00,CLR,OVC,0.00,WeatherDisplay:10.37,2013-07-09 09:43:00,
2013-07-09 04:48:00,68.9,66.5,27.05,NW,315,2.3,2.3,92,0.00,CLR,OVC,0.00,WeatherDisplay:10.37,2013-07-09 09:48:00,
2013-07-09 04:53:00,68.7,66.6,27.04,NW,315,1.1,0.0,93,0.00,CLR,OVC,0.00,WeatherDisplay:10.37,2013-07-09 09:53:00,
2013-07-09 04:58:00,68.7,66.6,27.04,NW,315,0.0,0.0,93,0.00,CLR,OVC,0.00,WeatherDisplay:10.37,2013-07-09 09:58:00,
2013-07-09 05:03:00,68.7,66.6,27.05,NW,315,0.0,0.0,93,0.00,CLR,OVC,0.00,WeatherDisplay:10.37,2013-07-09 10:03:00,
2013-07-09 05:08:00,68.9,66.8,27.05,North,0,0.0,0.0,93,0.00,CLR,OVC,0.00,WeatherDisplay:10.37,2013-07-09 10:08:00,
2013-07-09 05:13:00,68.9,66.8,27.05,North,0,0.7,0.0,93,0.00,CLR,OVC,0.00,WeatherDisplay:10.37,2013-07-09 10:13:00,
2013-07-09 05:14:00,68.9,66.8,27.05,North,0,1.1,0.0,93,0.00,CLR,OVC,0.00,WeatherDisplay:10.37,2013-07-09 10:14:00,
2013-07-09 05:19:00,68.9,66.8,27.04,North,0,1.1,0.0,93,0.00,CLR,OVC,0.00,WeatherDisplay:10.37,2013-07-09 10:19:00,
2013-07-09 05:24:00,68.9,66.5,27.05,North,0,0.0,0.0,92,0.00,CLR,OVC,0.00,WeatherDisplay:10.37,2013-07-09 10:24:00,
2013-07-09 05:29:00,68.9,66.5,27.05,NE,45,0.0,0.0,92,0.00,CLR,OVC,0.00,WeatherDisplay:10.37,2013-07-09 10:29:00,
2013-07-09 05:34:00,68.7,66.3,27.05,SE,135,1.1,0.0,92,0.00,CLR,OVC,0.00,WeatherDisplay:10.37,2013-07-09 10:34:00,
2013-07-09 05:39:00,68.7,66.3,27.06,North,0,0.0,0.0,92,0.00,CLR,OVC,0.00,WeatherDisplay:10.37,2013-07-09 10:39:00,
2013-07-09 05:44:00,68.5,66.4,27.06,North,0,0.0,0.0,93,0.00,CLR,OVC,0.00,WeatherDisplay:10.37,2013-07-09 10:44:00,
2013-07-09 05:49:00,68.5,66.4,27.06,North,0,0.0,0.0,93,0.00,CLR,OVC,0.00,WeatherDisplay:10.37,2013-07-09 10:49:00,
2013-07-09 05:54:00,68.5,66.4,27.06,NNW,338,2.3,2.3,93,0.00,CLR,OVC,0.00,WeatherDisplay:10.37,2013-07-09 10:54:00,
2013-07-09 05:59:00,68.5,66.4,27.06,NNW,338,2.3,2.3,93,0.00,CLR,OVC,0.00,WeatherDisplay:10.37,2013-07-09 10:59:00,
2013-07-09 06:04:00,68.4,66.3,27.06,NW,315,1.1,1.1,93,0.00,CLR,OVC,0.00,WeatherDisplay:10.37,2013-07-09 11:04:00,
2013-07-09 06:09:00,68.0,65.9,27.06,North,0,1.1,1.1,93,0.00,CLR,OVC,0.00,WeatherDisplay:10.37,2013-07-09 11:09:00,
2013-07-09 06:14:00,67.8,66.0,27.07,NNW,338,2.3,2.3,94,0.00,CLR,OVC,0.00,WeatherDisplay:10.37,2013-07-09 11:14:00,
2013-07-09 06:19:00,67.6,65.9,27.06,NW,315,0.0,0.0,94,0.00,CLR,OVC,0.00,WeatherDisplay:10.37,2013-07-09 11:19:00,
2013-07-09 06:24:00,67.6,66.2,27.06,NW,315,1.6,1.6,95,0.00,CLR,OVC,0.00,WeatherDisplay:10.37,2013-07-09 11:24:00,
2013-07-09 06:29:00,67.6,66.2,27.06,North,0,0.0,0.0,95,0.00,CLR,OVC,0.00,WeatherDisplay:10.37,2013-07-09 11:29:00,
2013-07-09 06:34:00,67.6,66.2,27.06,NW,315,1.1,0.0,95,0.00,CLR,OVC,0.00,WeatherDisplay:10.37,2013-07-09 11:34:00,
2013-07-09 06:39:00,67.6,66.2,27.06,South,180,1.1,0.0,95,0.00,CLR,OVC,0.00,WeatherDisplay:10.37,2013-07-09 11:39:00,
2013-07-09 06:44:00,67.8,66.3,27.07,NW,315,0.0,0.0,95,0.00,CLR,OVC,0.00,WeatherDisplay:10.37,2013-07-09 11:44:00,
2013-07-09 06:49:00,67.8,66.3,27.07,NW,315,3.5,3.5,95,0.00,CLR,OVC,0.00,WeatherDisplay:10.37,2013-07-09 11:49:00,
2013-07-09 06:54:00,67.8,66.3,27.06,North,0,3.5,3.5,95,0.00,CLR,OVC,0.00,WeatherDisplay:10.37,2013-07-09 11:54:00,
2013-07-09 06:59:00,67.6,66.2,27.06,NW,315,2.3,2.3,95,0.00,CLR,OVC,0.00,WeatherDisplay:10.37,2013-07-09 11:59:00,
2013-07-09 07:04:00,67.6,66.2,27.07,NW,315,1.1,1.1,95,0.00,CLR,OVC,0.00,WeatherDisplay:10.37,2013-07-09 12:04:00,
2013-07-09 07:09:00,67.8,66.3,27.07,NNW,338,0.0,0.7,95,0.00,CLR,OVC,0.00,WeatherDisplay:10.37,2013-07-09 12:09:00,
2013-07-09 07:14:00,68.0,66.2,27.07,North,0,1.1,0.0,94,0.00,CLR,OVC,0.00,WeatherDisplay:10.37,2013-07-09 12:14:00,
2013-07-09 07:19:00,68.2,66.4,27.08,SW,225,2.3,2.3,94,0.00,CLR,OVC,0.00,WeatherDisplay:10.37,2013-07-09 12:19:00,
2013-07-09 07:24:00,68.5,66.7,27.07,NW,315,2.3,2.3,94,0.00,CLR,OVC,0.00,WeatherDisplay:10.37,2013-07-09 12:24:00,
2013-07-09 07:29:00,69.1,67.3,27.08,SW,225,1.1,0.0,94,0.00,CLR,OVC,0.00,WeatherDisplay:10.37,2013-07-09 12:29:00,
2013-07-09 07:34:00,69.4,67.6,27.08,NW,315,1.1,0.0,94,0.00,CLR,OVC,0.00,WeatherDisplay:10.37,2013-07-09 12:34:00,
2013-07-09 07:39:00,69.6,67.8,27.08,NW,315,3.5,3.5,94,0.00,CLR,OVC,0.00,WeatherDisplay:10.37,2013-07-09 12:39:00,
2013-07-09 07:44:00,69.8,67.4,27.08,NW,315,3.5,3.5,92,0.00,CLR,OVC,0.00,WeatherDisplay:10.37,2013-07-09 12:44:00,
2013-07-09 07:49:00,69.8,67.4,27.10,NW,315,5.8,5.8,92,0.00,CLR,OVC,0.00,WeatherDisplay:10.37,2013-07-09 12:49:00,
2013-07-09 07:54:00,69.8,67.4,27.10,West,270,2.3,0.0,92,0.00,CLR,OVC,0.00,WeatherDisplay:10.37,2013-07-09 12:54:00,
2013-07-09 07:59:00,70.2,67.7,27.09,South,180,3.5,0.0,92,0.00,CLR,OVC,0.00,WeatherDisplay:10.37,2013-07-09 12:59:00,
2013-07-09 08:04:00,70.5,68.1,27.09,NW,315,2.3,0.0,92,0.00,CLR,OVC,0.00,WeatherDisplay:10.37,2013-07-09 13:04:00,
2013-07-09 08:09:00,70.7,68.3,27.10,North,0,3.5,3.8,92,0.00,CLR,OVC,0.00,WeatherDisplay:10.37,2013-07-09 13:09:00,
2013-07-09 08:14:00,71.2,68.5,27.10,NW,315,1.1,0.0,91,0.00,CLR,OVC,0.00,WeatherDisplay:10.37,2013-07-09 13:14:00,
2013-07-09 08:19:00,71.8,68.7,27.10,NW,315,3.5,0.0,90,0.00,CLR,OVC,0.00,WeatherDisplay:10.37,2013-07-09 13:19:00,
2013-07-09 08:24:00,72.1,68.7,27.10,SW,225,5.8,5.8,89,0.00,CLR,OVC,0.00,WeatherDisplay:10.37,2013-07-09 13:24:00,
2013-07-09 08:29:00,72.5,68.7,27.11,NW,315,2.3,0.0,88,0.00,CLR,OVC,0.00,WeatherDisplay:10.37,2013-07-09 13:29:00,
2013-07-09 08:34:00,73.4,70.0,27.11,North,0,1.1,1.1,89,0.00,CLR,OVC,0.00,WeatherDisplay:10.37,2013-07-09 13:34:00,
2013-07-09 08:39:00,75.0,71.2,27.11,NW,315,2.3,2.3,88,0.00,CLR,OVC,0.00,WeatherDisplay:10.37,2013-07-09 13:39:00,
2013-07-09 08:44:00,76.8,72.0,27.11,North,0,1.1,0.0,85,0.00,CLR,OVC,0.00,WeatherDisplay:10.37,2013-07-09 13:44:00,
2013-07-09 08:49:00,78.8,71.7,27.11,NE,45,1.1,0.0,79,0.00,CLR,OVC,0.00,WeatherDisplay:10.37,2013-07-09 13:49:00,
2013-07-09 08:54:00,80.1,71.0,27.11,North,0,4.6,4.6,74,0.00,CLR,OVC,0.00,WeatherDisplay:10.37,2013-07-09 13:54:00,
2013-07-09 08:59:00,80.8,70.5,27.11,North,0,3.5,3.5,71,0.00,CLR,OVC,0.00,WeatherDisplay:10.37,2013-07-09 13:59:00,
2013-07-09 09:04:00,80.8,70.5,27.11,NNW,338,3.5,3.5,71,0.00,CLR,OVC,0.00,WeatherDisplay:10.37,2013-07-09 14:04:00,
2013-07-09 09:09:00,81.3,71.0,27.11,NW,315,1.1,0.0,71,0.00,CLR,OVC,0.00,WeatherDisplay:10.37,2013-07-09 14:09:00,
2013-07-09 09:14:00,82.8,71.1,27.11,North,0,3.8,3.8,68,0.00,CLR,OVC,0.00,WeatherDisplay:10.37,2013-07-09 14:14:00,
2013-07-09 09:19:00,82.9,70.4,27.11,North,0,3.5,3.5,66,0.00,CLR,OVC,0.00,WeatherDisplay:10.37,2013-07-09 14:19:00,
2013-07-09 09:24:00,82.8,70.2,27.11,NW,315,1.1,1.1,66,0.00,CLR,OVC,0.00,WeatherDisplay:10.37,2013-07-09 14:24:00,
2013-07-09 09:29:00,82.6,70.1,27.11,NW,315,3.5,3.5,66,0.00,CLR,OVC,0.00,WeatherDisplay:10.37,2013-07-09 14:29:00,
2013-07-09 09:34:00,82.8,70.7,27.11,NW,315,3.5,3.5,67,0.00,CLR,OVC,0.00,WeatherDisplay:10.37,2013-07-09 14:34:00,
2013-07-09 09:40:00,83.5,71.8,27.11,North,0,3.5,3.5,68,0.00,CLR,OVC,0.00,WeatherDisplay:10.37,2013-07-09 14:40:00,
2013-07-09 09:45:00,84.2,70.7,27.11,NE,45,1.1,0.0,64,0.00,CLR,OVC,0.00,WeatherDisplay:10.37,2013-07-09 14:45:00,
2013-07-09 09:50:00,84.6,71.0,27.11,NW,315,5.8,5.8,64,0.00,CLR,OVC,0.00,WeatherDisplay:10.37,2013-07-09 14:50:00,
2013-07-09 09:55:00,85.3,72.2,27.11,NW,315,2.3,2.3,65,0.00,CLR,OVC,0.00,WeatherDisplay:10.37,2013-07-09 14:55:00,
2013-07-09 10:00:00,85.5,71.4,27.11,NW,315,1.1,0.0,63,0.00,CLR,OVC,0.00,WeatherDisplay:10.37,2013-07-09 15:00:00,
2013-07-09 10:05:00,85.6,72.1,27.12,West,270,1.1,0.0,64,0.00,CLR,OVC,0.00,WeatherDisplay:10.37,2013-07-09 15:05:00,
2013-07-09 10:10:00,86.5,71.0,27.12,NW,315,3.5,3.5,60,0.00,CLR,OVC,0.00,WeatherDisplay:10.37,2013-07-09 15:10:00,
2013-07-09 10:15:00,86.4,71.3,27.12,SW,225,1.1,0.0,61,0.00,CLR,OVC,0.00,WeatherDisplay:10.37,2013-07-09 15:15:00,
2013-07-09 10:20:00,86.9,71.8,27.12,NW,315,1.1,1.1,61,0.00,CLR,OVC,0.00,WeatherDisplay:10.37,2013-07-09 15:20:00,
2013-07-09 10:25:00,87.3,70.2,27.12,NW,315,3.5,3.5,57,0.00,CLR,OVC,0.00,WeatherDisplay:10.37,2013-07-09 15:25:00,
2013-07-09 10:30:00,86.9,69.8,27.12,NW,315,2.3,2.3,57,0.00,CLR,OVC,0.00,WeatherDisplay:10.37,2013-07-09 15:30:00,
2013-07-09 10:35:00,86.9,71.3,27.11,NW,315,3.5,0.0,60,0.00,CLR,OVC,0.00,WeatherDisplay:10.37,2013-07-09 15:35:00,
2013-07-09 10:40:00,87.1,70.5,27.13,SW,225,5.8,5.8,58,0.00,CLR,OVC,0.00,WeatherDisplay:10.37,2013-07-09 15:40:00,
2013-07-09 10:45:00,87.1,70.5,27.13,North,0,3.5,3.5,58,0.00,CLR,OVC,0.00,WeatherDisplay:10.37,2013-07-09 15:45:00,
2013-07-09 10:50:00,87.4,71.3,27.13,WNW,292,3.5,3.5,59,0.00,CLR,OVC,0.00,WeatherDisplay:10.37,2013-07-09 15:50:00,
2013-07-09 10:55:00,87.8,70.1,27.13,North,0,5.8,5.8,56,0.00,CLR,OVC,0.00,WeatherDisplay:10.37,2013-07-09 15:55:00,
2013-07-09 11:00:00,88.2,70.0,27.13,NW,315,4.6,4.6,55,0.00,CLR,OVC,0.00,WeatherDisplay:10.37,2013-07-09 16:00:00,
2013-07-09 11:05:00,88.2,70.5,27.13,NW,315,2.3,2.3,56,0.00,CLR,OVC,0.00,WeatherDisplay:10.37,2013-07-09 16:05:00,
2013-07-09 11:10:00,88.9,70.6,27.13,North,0,4.6,4.6,55,0.00,CLR,OVC,0.00,WeatherDisplay:10.37,2013-07-09 16:10:00,
2013-07-09 11:15:00,89.1,70.3,27.13,NW,315,2.3,2.3,54,0.00,CLR,OVC,0.00,WeatherDisplay:10.37,2013-07-09 16:15:00,
2013-07-09 11:20:00,89.4,71.1,27.13,North,0,3.5,3.5,55,0.00,CLR,OVC,0.00,WeatherDisplay:10.37,2013-07-09 16:20:00,
2013-07-09 11:25:00,89.8,69.8,27.13,NNW,338,5.8,5.8,52,0.00,CLR,OVC,0.00,WeatherDisplay:10.37,2013-07-09 16:25:00,
2013-07-09 11:30:00,90.1,69.6,27.13,NW,315,3.8,3.8,51,0.00,CLR,OVC,0.00,WeatherDisplay:10.37,2013-07-09 16:30:00,
2013-07-09 11:35:00,90.1,69.6,27.13,North,0,5.8,5.8,51,0.00,CLR,OVC,0.00,WeatherDisplay:10.37,2013-07-09 16:35:00,
2013-07-09 11:40:00,90.5,69.9,27.13,NW,315,1.1,1.6,51,0.00,CLR,OVC,0.00,WeatherDisplay:10.37,2013-07-09 16:40:00,
2013-07-09 11:45:00,90.9,69.7,27.13,NW,315,6.9,6.9,50,0.00,CLR,OVC,0.00,WeatherDisplay:10.37,2013-07-09 16:45:00,
2013-07-09 11:50:00,91.9,70.6,27.13,NW,315,3.5,0.0,50,0.00,CLR,OVC,0.00,WeatherDisplay:10.37,2013-07-09 16:50:00,
2013-07-09 11:55:00,92.7,70.7,27.13,NW,315,2.3,2.3,49,0.00,CLR,OVC,0.00,WeatherDisplay:10.37,2013-07-09 16:55:00,
2013-07-09 12:00:00,92.7,70.7,27.13,NW,315,3.5,3.5,49,0.00,CLR,OVC,0.00,WeatherDisplay:10.37,2013-07-09 17:00:00,
2013-07-09 12:05:00,93.0,71.0,27.13,NW,315,3.5,3.5,49,0.00,CLR,OVC,0.00,WeatherDisplay:10.37,2013-07-09 17:05:00,
2013-07-09 12:10:00,93.2,70.6,27.13,NNW,338,2.3,2.3,48,0.00,CLR,OVC,0.00,WeatherDisplay:10.37,2013-07-09 17:10:00,
2013-07-09 12:15:00,93.6,70.3,27.13,NE,45,3.5,3.5,47,0.00,CLR,OVC,0.00,WeatherDisplay:10.37,2013-07-09 17:15:00,
2013-07-09 12:20:00,93.7,69.8,27.13,NW,315,4.6,4.6,46,0.00,CLR,OVC,0.00,WeatherDisplay:10.37,2013-07-09 17:20:00,
2013-07-09 12:25:00,94.3,71.6,27.13,North,0,3.5,3.5,48,0.00,CLR,OVC,0.00,WeatherDisplay:10.37,2013-07-09 17:25:00,
2013-07-09 12:30:00,95.0,70.3,27.13,NW,315,3.5,0.0,45,0.00,CLR,OVC,0.00,WeatherDisplay:10.37,2013-07-09 17:30:00,
2013-07-09 12:35:00,95.2,70.5,27.13,NW,315,2.3,2.3,45,0.00,CLR,OVC,0.00,WeatherDisplay:10.37,2013-07-09 17:35:00,
2013-07-09 12:40:00,95.4,70.0,27.13,NW,315,2.3,0.0,44,0.00,CLR,OVC,0.00,WeatherDisplay:10.37,2013-07-09 17:40:00,
2013-07-09 12:45:00,95.9,69.8,27.13,NW,315,3.5,3.5,43,0.00,CLR,OVC,0.00,WeatherDisplay:10.37,2013-07-09 17:45:00,
2013-07-09 12:50:00,96.1,70.6,27.13,NW,315,3.5,3.5,44,0.00,CLR,OVC,0.00,WeatherDisplay:10.37,2013-07-09 17:50:00,
2013-07-09 12:55:00,95.9,69.8,27.13,NW,315,5.8,5.8,43,0.00,CLR,OVC,0.00,WeatherDisplay:10.37,2013-07-09 17:55:00,
2013-07-09 13:00:00,95.7,70.3,27.13,NW,315,5.8,5.8,44,0.00,CLR,OVC,0.00,WeatherDisplay:10.37,2013-07-09 18:00:00,
2013-07-09 13:05:00,95.7,70.3,27.13,NW,315,3.5,3.5,44,0.00,CLR,OVC,0.00,WeatherDisplay:10.37,2013-07-09 18:05:00,
2013-07-09 13:10:00,95.5,69.5,27.12,NW,315,3.1,3.1,43,0.00,CLR,OVC,0.00,WeatherDisplay:10.37,2013-07-09 18:10:00,
2013-07-09 13:15:00,95.5,70.2,27.12,NW,315,4.6,4.6,44,0.00,CLR,OVC,0.00,WeatherDisplay:10.37,2013-07-09 18:15:00,
2013-07-09 13:20:00,95.5,70.2,27.12,NW,315,4.6,4.6,44,0.00,CLR,OVC,0.00,WeatherDisplay:10.37,2013-07-09 18:20:00,
2013-07-09 13:25:00,95.5,69.5,27.12,NW,315,3.5,3.5,43,0.00,CLR,OVC,0.00,WeatherDisplay:10.37,2013-07-09 18:25:00,
2013-07-09 13:30:00,95.7,69.6,27.12,SW,225,5.8,5.8,43,0.00,CLR,OVC,0.00,WeatherDisplay:10.37,2013-07-09 18:30:00,
2013-07-09 13:35:00,95.5,69.5,27.12,North,0,2.3,2.3,43,0.00,CLR,OVC,0.00,WeatherDisplay:10.37,2013-07-09 18:35:00,
2013-07-09 13:40:00,96.3,70.1,27.12,East,90,1.1,2.2,43,0.00,CLR,OVC,0.00,WeatherDisplay:10.37,2013-07-09 18:40:00,
2013-07-09 13:45:00,96.6,68.3,27.12,NW,315,3.5,3.5,40,0.00,CLR,OVC,0.00,WeatherDisplay:10.37,2013-07-09 18:45:00,
2013-07-09 13:50:00,97.0,69.4,27.12,NW,315,9.2,9.2,41,0.00,CLR,OVC,0.00,WeatherDisplay:10.37,2013-07-09 18:50:00,
2013-07-09 13:55:00,97.0,67.9,27.12,NW,315,5.8,5.8,39,0.00,CLR,OVC,0.00,WeatherDisplay:10.37,2013-07-09 18:55:00,
2013-07-09 14:00:00,96.6,69.1,27.12,North,0,2.3,2.3,41,0.00,CLR,OVC,0.00,WeatherDisplay:10.37,2013-07-09 19:00:00,
2013-07-09 14:05:00,97.2,68.1,27.12,NW,315,5.8,5.8,39,0.00,CLR,OVC,0.00,WeatherDisplay:10.37,2013-07-09 19:05:00,
2013-07-09 14:10:00,97.3,68.2,27.11,NW,315,3.5,3.5,39,0.00,CLR,OVC,0.00,WeatherDisplay:10.37,2013-07-09 19:10:00,
2013-07-09 14:17:00,97.3,69.0,27.11,North,0,2.3,0.0,40,0.00,CLR,OVC,0.00,WeatherDisplay:10.37,2013-07-09 19:17:00,
2013-07-09 14:22:00,97.9,68.7,27.11,North,0,4.6,4.6,39,0.00,CLR,OVC,0.00,WeatherDisplay:10.37,2013-07-09 19:22:00,
2013-07-09 14:27:00,97.9,68.0,27.11,NW,315,3.5,3.5,38,0.00,CLR,OVC,0.00,WeatherDisplay:10.37,2013-07-09 19:27:00,
2013-07-09 14:32:00,97.3,67.5,27.11,South,180,2.3,2.3,38,0.00,CLR,OVC,0.00,WeatherDisplay:10.37,2013-07-09 19:32:00,
2013-07-09 14:37:00,97.9,67.2,27.11,NW,315,3.5,3.5,37,0.00,CLR,OVC,0.00,WeatherDisplay:10.37,2013-07-09 19:37:00,
2013-07-09 14:42:00,97.5,67.6,27.11,NW,315,5.8,5.8,38,0.00,CLR,OVC,0.00,WeatherDisplay:10.37,2013-07-09 19:42:00,
2013-07-09 14:47:00,97.7,67.0,27.11,North,0,1.1,0.0,37,0.00,CLR,OVC,0.00,WeatherDisplay:10.37,2013-07-09 19:47:00,
2013-07-09 14:52:00,98.1,66.6,27.11,NW,315,3.5,3.5,36,0.00,CLR,OVC,0.00,WeatherDisplay:10.37,2013-07-09 19:52:00,
2013-07-09 14:57:00,97.5,65.3,27.11,North,0,6.9,6.9,35,0.00,CLR,OVC,0.00,WeatherDisplay:10.37,2013-07-09 19:57:00,
2013-07-09 15:02:00,97.5,65.3,27.11,East,90,1.1,1.1,35,0.00,CLR,OVC,0.00,WeatherDisplay:10.37,2013-07-09 20:02:00,
2013-07-09 15:07:00,97.5,65.3,27.11,East,90,1.1,1.1,35,0.00,CLR,OVC,0.00,WeatherDisplay:10.37,2013-07-09 20:07:00,
2013-07-09 15:12:00,99.5,67.0,27.11,North,0,3.5,3.5,35,0.00,CLR,OVC,0.00,WeatherDisplay:10.37,2013-07-09 20:12:00,
2013-07-09 15:17:00,99.5,66.2,27.10,North,0,5.8,5.8,34,0.00,CLR,OVC,0.00,WeatherDisplay:10.37,2013-07-09 20:17:00,
2013-07-09 15:22:00,99.0,65.7,27.11,North,0,1.1,0.0,34,0.00,CLR,OVC,0.00,WeatherDisplay:10.37,2013-07-09 20:22:00,
2013-07-09 15:27:00,99.1,66.7,27.10,North,0,2.3,2.3,35,0.00,CLR,OVC,0.00,WeatherDisplay:10.37,2013-07-09 20:27:00,
2013-07-09 15:32:00,99.0,65.7,27.10,NW,315,3.5,3.5,34,0.00,CLR,OVC,0.00,WeatherDisplay:10.37,2013-07-09 20:32:00,
2013-07-09 15:37:00,98.6,64.5,27.10,SW,225,3.5,3.5,33,0.00,CLR,OVC,0.00,WeatherDisplay:10.37,2013-07-09 20:37:00,
2013-07-09 15:42:00,99.1,65.8,27.10,South,180,2.3,2.3,34,0.00,CLR,OVC,0.00,WeatherDisplay:10.37,2013-07-09 20:42:00,
2013-07-09 15:47:00,99.7,65.5,27.10,NW,315,1.1,0.0,33,0.00,CLR,OVC,0.00,WeatherDisplay:10.37,2013-07-09 20:47:00,
2013-07-09 15:52:00,99.9,64.7,27.11,WSW,248,2.3,2.3,32,0.00,CLR,OVC,0.00,WeatherDisplay:10.37,2013-07-09 20:52:00,
2013-07-09 15:57:00,99.7,63.7,27.10,NW,315,3.5,3.5,31,0.00,CLR,OVC,0.00,WeatherDisplay:10.37,2013-07-09 20:57:00,
2013-07-09 16:02:00,99.3,64.3,27.10,South,180,1.1,1.1,32,0.00,CLR,OVC,0.00,WeatherDisplay:10.37,2013-07-09 21:02:00,
2013-07-09 16:07:00,99.5,64.4,27.10,North,0,2.3,2.3,32,0.00,CLR,OVC,0.00,WeatherDisplay:10.37,2013-07-09 21:07:00,
2013-07-09 16:12:00,99.1,64.1,27.10,NW,315,2.3,2.3,32,0.00,CLR,OVC,0.00,WeatherDisplay:10.37,2013-07-09 21:12:00,
2013-07-09 16:17:00,99.0,63.9,27.09,NW,315,2.3,2.3,32,0.00,CLR,OVC,0.00,WeatherDisplay:10.37,2013-07-09 21:17:00,
2013-07-09 16:22:00,99.0,63.9,27.09,North,0,3.5,3.5,32,0.00,CLR,OVC,0.00,WeatherDisplay:10.37,2013-07-09 21:22:00,
2013-07-09 16:27:00,98.8,63.8,27.09,North,0,5.8,5.8,32,0.00,CLR,OVC,0.00,WeatherDisplay:10.37,2013-07-09 21:27:00,
2013-07-09 16:32:00,98.4,64.4,27.09,North,0,8.1,8.1,33,0.00,CLR,OVC,0.00,WeatherDisplay:10.37,2013-07-09 21:32:00,
2013-07-09 16:37:00,98.2,64.2,27.09,NW,315,5.8,5.8,33,0.00,CLR,OVC,0.00,WeatherDisplay:10.37,2013-07-09 21:37:00,
2013-07-09 16:42:00,98.1,65.7,27.09,NW,315,5.8,5.8,35,0.00,CLR,OVC,0.00,WeatherDisplay:10.37,2013-07-09 21:42:00,
2013-07-09 16:47:00,97.9,64.7,27.10,North,0,3.5,3.5,34,0.00,CLR,OVC,0.00,WeatherDisplay:10.37,2013-07-09 21:47:00,
2013-07-09 16:52:00,97.7,63.7,27.09,WNW,292,6.9,6.9,33,0.00,CLR,OVC,0.00,WeatherDisplay:10.37,2013-07-09 21:52:00,
2013-07-09 16:57:00,97.7,62.9,27.09,WNW,292,3.5,3.5,32,0.00,CLR,OVC,0.00,WeatherDisplay:10.37,2013-07-09 21:57:00,
2013-07-09 17:02:00,97.7,62.9,27.09,NW,315,4.6,4.6,32,0.00,CLR,OVC,0.00,WeatherDisplay:10.37,2013-07-09 22:02:00,
2013-07-09 17:07:00,97.7,62.9,27.09,NW,315,4.6,4.6,32,0.00,CLR,OVC,0.00,WeatherDisplay:10.37,2013-07-09 22:07:00,
2013-07-09 17:12:00,98.1,63.2,27.09,NW,315,3.5,3.5,32,0.00,CLR,OVC,0.00,WeatherDisplay:10.37,2013-07-09 22:12:00,
2013-07-09 17:17:00,97.9,63.9,27.09,North,0,5.8,5.8,33,0.00,CLR,OVC,0.00,WeatherDisplay:10.37,2013-07-09 22:17:00,
2013-07-09 17:22:00,97.9,63.9,27.08,NNW,338,3.5,3.5,33,0.00,CLR,OVC,0.00,WeatherDisplay:10.37,2013-07-09 22:22:00,
2013-07-09 17:27:00,97.9,63.0,27.09,SW,225,4.6,4.6,32,0.00,CLR,OVC,0.00,WeatherDisplay:10.37,2013-07-09 22:27:00,
2013-07-09 17:32:00,97.9,64.7,27.08,North,0,3.5,3.5,34,0.00,CLR,OVC,0.00,WeatherDisplay:10.37,2013-07-09 22:32:00,
2013-07-09 17:37:00,97.7,63.7,27.09,North,0,5.8,5.8,33,0.00,CLR,OVC,0.00,WeatherDisplay:10.37,2013-07-09 22:37:00,
2013-07-09 17:42:00,97.5,62.7,27.08,NW,315,3.5,3.5,32,0.00,CLR,OVC,0.00,WeatherDisplay:10.37,2013-07-09 22:42:00,
2013-07-09 17:47:00,97.2,63.3,27.08,NE,45,4.6,4.6,33,0.00,CLR,OVC,0.00,WeatherDisplay:10.37,2013-07-09 22:47:00,
2013-07-09 17:52:00,97.0,63.1,27.08,NW,315,4.6,4.6,33,0.00,CLR,OVC,0.00,WeatherDisplay:10.37,2013-07-09 22:52:00,
2013-07-09 17:57:00,97.0,60.4,27.08,NNW,338,3.5,3.5,30,0.00,CLR,OVC,0.00,WeatherDisplay:10.37,2013-07-09 22:57:00,
2013-07-09 18:02:00,97.0,59.5,27.08,NW,315,8.1,8.1,29,0.00,CLR,OVC,0.00,WeatherDisplay:10.37,2013-07-09 23:02:00,
2013-07-09 18:07:00,96.8,56.3,27.08,NW,315,4.6,4.6,26,0.00,CLR,OVC,0.00,WeatherDisplay:10.37,2013-07-09 23:07:00,
2013-07-09 18:12:00,96.8,62.1,27.08,North,0,4.6,4.6,32,0.00,CLR,OVC,0.00,WeatherDisplay:10.37,2013-07-09 23:12:00,
2013-07-09 18:17:00,96.6,58.2,27.08,NW,315,3.5,3.5,28,0.00,CLR,OVC,0.00,WeatherDisplay:10.37,2013-07-09 23:17:00,
2013-07-09 18:22:00,96.6,59.1,27.08,North,0,5.8,5.8,29,0.00,CLR,OVC,0.00,WeatherDisplay:10.37,2013-07-09 23:22:00,
2013-07-09 18:27:00,96.6,60.1,27.08,NW,315,2.3,2.3,30,0.00,CLR,OVC,0.00,WeatherDisplay:10.37,2013-07-09 23:27:00,
2013-07-09 18:32:00,96.6,62.8,27.08,NW,315,3.5,3.5,33,0.00,CLR,OVC,0.00,WeatherDisplay:10.37,2013-07-09 23:32:00,
2013-07-09 18:37:00,96.6,62.8,27.08,NW,315,3.5,3.5,33,0.00,CLR,OVC,0.00,WeatherDisplay:10.37,2013-07-09 23:37:00,
2013-07-09 18:42:00,96.4,63.5,27.08,NNW,338,3.5,3.5,34,0.00,CLR,OVC,0.00,WeatherDisplay:10.37,2013-07-09 23:42:00,
2013-07-09 18:47:00,96.3,65.0,27.08,NW,315,3.5,3.5,36,0.00,CLR,OVC,0.00,WeatherDisplay:10.37,2013-07-09 23:47:00,
2013-07-09 18:52:00,95.9,64.7,27.08,NW,315,2.3,2.3,36,0.00,CLR,OVC,0.00,WeatherDisplay:10.37,2013-07-09 23:52:00,
2013-07-09 18:57:00,95.7,64.5,27.08,NW,315,5.8,5.8,36,0.00,CLR,OVC,0.00,WeatherDisplay:10.37,2013-07-09 23:57:00,
2013-07-09 19:02:00,95.5,65.1,27.08,NW,315,6.9,6.9,37,0.00,CLR,OVC,0.00,WeatherDisplay:10.37,2013-07-10 00:02:00,
2013-07-09 19:07:00,95.5,65.1,27.07,NW,315,6.9,6.9,37,0.00,CLR,OVC,0.00,WeatherDisplay:10.37,2013-07-10 00:07:00,
2013-07-09 19:12:00,95.4,66.5,27.07,NW,315,4.6,4.6,39,0.00,CLR,OVC,0.00,WeatherDisplay:10.37,2013-07-10 00:12:00,
2013-07-09 19:17:00,95.2,66.3,27.07,NW,315,3.5,3.5,39,0.00,CLR,OVC,0.00,WeatherDisplay:10.37,2013-07-10 00:17:00,
2013-07-09 19:22:00,95.0,67.6,27.07,NW,315,3.5,3.5,41,0.00,CLR,OVC,0.00,WeatherDisplay:10.37,2013-07-10 00:22:00,
2013-07-09 19:23:00,95.0,66.9,27.07,NW,315,3.5,3.5,40,0.00,CLR,OVC,0.00,WeatherDisplay:10.37,2013-07-10 00:23:00,
2013-07-09 19:28:00,94.8,67.4,27.07,NNW,338,4.6,4.6,41,0.00,CLR,OVC,0.00,WeatherDisplay:10.37,2013-07-10 00:28:00,
2013-07-09 19:33:00,95.0,65.4,27.06,NNW,338,3.5,3.5,38,0.00,CLR,OVC,0.00,WeatherDisplay:10.37,2013-07-10 00:33:00,
2013-07-09 19:38:00,95.0,63.9,27.07,NNW,338,6.9,6.9,36,0.00,CLR,OVC,0.00,WeatherDisplay:10.37,2013-07-10 00:38:00,
2013-07-09 19:43:00,95.0,62.2,27.08,North,0,5.8,5.8,34,0.00,CLR,OVC,0.00,WeatherDisplay:10.37,2013-07-10 00:43:00,
2013-07-09 19:48:00,95.2,62.4,27.08,NW,315,5.8,5.8,34,0.00,CLR,OVC,0.00,WeatherDisplay:10.37,2013-07-10 00:48:00,
2013-07-09 19:53:00,95.0,62.2,27.08,NW,315,4.6,4.6,34,0.00,CLR,OVC,0.00,WeatherDisplay:10.37,2013-07-10 00:53:00,
2013-07-09 19:58:00,94.8,62.9,27.08,North,0,5.8,5.8,35,0.00,CLR,OVC,0.00,WeatherDisplay:10.37,2013-07-10 00:58:00,
2013-07-09 20:03:00,94.6,62.7,27.08,NW,315,6.9,6.9,35,0.00,CLR,OVC,0.00,WeatherDisplay:10.37,2013-07-10 01:03:00,
2013-07-09 20:08:00,94.5,63.4,27.08,North,0,9.2,9.2,36,0.00,CLR,OVC,0.00,WeatherDisplay:10.37,2013-07-10 01:08:00,
2013-07-09 20:13:00,94.3,63.2,27.08,NW,315,5.8,5.8,36,0.00,CLR,OVC,0.00,WeatherDisplay:10.37,2013-07-10 01:13:00,
2013-07-09 20:18:00,93.9,62.9,27.08,WNW,292,5.8,5.8,36,0.00,CLR,OVC,0.00,WeatherDisplay:10.37,2013-07-10 01:18:00,
2013-07-09 20:23:00,93.7,62.8,27.09,North,0,5.8,5.8,36,0.00,CLR,OVC,0.00,WeatherDisplay:10.37,2013-07-10 01:23:00,
2013-07-09 20:28:00,93.4,64.0,27.09,North,0,1.1,1.6,38,0.00,CLR,OVC,0.00,WeatherDisplay:10.37,2013-07-10 01:28:00,
2013-07-09 20:33:00,92.8,64.2,27.09,North,0,4.6,4.6,39,0.00,CLR,OVC,0.00,WeatherDisplay:10.37,2013-07-10 01:33:00,
2013-07-09 20:38:00,92.7,63.3,27.10,NW,315,2.3,2.3,38,0.00,CLR,OVC,0.00,WeatherDisplay:10.37,2013-07-10 01:38:00,
2013-07-09 20:43:00,92.3,63.8,27.10,North,0,1.1,0.0,39,0.00,CLR,OVC,0.00,WeatherDisplay:10.37,2013-07-10 01:43:00,
2013-07-09 20:48:00,91.9,64.2,27.10,SW,225,1.1,0.0,40,0.00,CLR,OVC,0.00,WeatherDisplay:10.37,2013-07-10 01:48:00,
2013-07-09 20:53:00,91.4,65.1,27.10,North,0,2.3,0.0,42,0.00,CLR,OVC,0.00,WeatherDisplay:10.37,2013-07-10 01:53:00,
2013-07-09 20:58:00,90.5,64.9,27.11,South,180,3.5,0.0,43,0.00,CLR,OVC,0.00,WeatherDisplay:10.37,2013-07-10 01:58:00,
2013-07-09 21:03:00,90.3,64.8,27.11,NNE,22,1.1,0.0,43,0.00,CLR,OVC,0.00,WeatherDisplay:10.37,2013-07-10 02:03:00,
2013-07-09 21:08:00,89.4,65.9,27.12,North,0,1.1,0.0,46,0.00,CLR,OVC,0.00,WeatherDisplay:10.37,2013-07-10 02:08:00,
2013-07-09 21:13:00,89.1,66.2,27.12,ENE,68,1.1,1.1,47,0.00,CLR,OVC,0.00,WeatherDisplay:10.37,2013-07-10 02:13:00,
2013-07-09 21:18:00,88.3,66.8,27.12,SE,135,1.1,2.2,49,0.00,CLR,OVC,0.00,WeatherDisplay:10.37,2013-07-10 02:18:00,
2013-07-09 21:23:00,88.0,67.0,27.13,SE,135,3.5,3.5,50,0.00,CLR,OVC,0.00,WeatherDisplay:10.37,2013-07-10 02:23:00,
2013-07-09 21:28:00,87.6,68.4,27.13,NE,45,3.5,3.5,53,0.00,CLR,OVC,0.00,WeatherDisplay:10.37,2013-07-10 02:28:00,
2013-07-09 21:33:00,87.1,68.4,27.14,South,180,8.1,8.1,54,0.00,CLR,OVC,0.00,WeatherDisplay:10.37,2013-07-10 02:33:00,
2013-07-09 21:38:00,86.7,68.1,27.14,SE,135,3.5,3.5,54,0.00,CLR,OVC,0.00,WeatherDisplay:10.37,2013-07-10 02:38:00,
2013-07-09 21:43:00,86.2,67.6,27.14,SW,225,4.6,4.6,54,0.00,CLR,OVC,0.00,WeatherDisplay:10.37,2013-07-10 02:43:00,
2013-07-09 21:48:00,85.6,68.1,27.14,SE,135,3.5,3.5,56,0.00,CLR,OVC,0.00,WeatherDisplay:10.37,2013-07-10 02:48:00,
2013-07-09 21:53:00,85.3,68.8,27.15,SE,135,3.5,3.5,58,0.00,CLR,OVC,0.00,WeatherDisplay:10.37,2013-07-10 02:53:00,
2013-07-09 21:58:00,84.9,69.0,27.15,South,180,4.6,4.6,59,0.00,CLR,OVC,0.00,WeatherDisplay:10.37,2013-07-10 02:58:00,
2013-07-09 22:03:00,84.6,69.1,27.16,West,270,2.3,2.3,60,0.00,CLR,OVC,0.00,WeatherDisplay:10.37,2013-07-10 03:03:00,
2013-07-09 22:08:00,84.2,68.8,27.16,SE,135,3.5,3.5,60,0.00,CLR,OVC,0.00,WeatherDisplay:10.37,2013-07-10 03:08:00,
2013-07-09 22:13:00,84.0,69.6,27.17,North,0,1.1,1.1,62,0.00,CLR,OVC,0.00,WeatherDisplay:10.37,2013-07-10 03:13:00,
2013-07-09 22:18:00,83.7,69.3,27.17,SE,135,2.3,2.3,62,0.00,CLR,OVC,0.00,WeatherDisplay:10.37,2013-07-10 03:18:00,
2013-07-09 22:23:00,83.5,69.1,27.17,NE,45,1.1,0.0,62,0.00,CLR,OVC,0.00,WeatherDisplay:10.37,2013-07-10 03:23:00,
2013-07-09 22:28:00,83.1,68.7,27.17,East,90,0.0,0.0,62,0.00,CLR,OVC,0.00,WeatherDisplay:10.37,2013-07-10 03:28:00,
2013-07-09 22:33:00,83.1,69.2,27.18,East,90,0.0,0.0,63,0.00,CLR,OVC,0.00,WeatherDisplay:10.37,2013-07-10 03:33:00,
2013-07-09 22:38:00,82.8,68.9,27.18,East,90,1.1,0.0,63,0.00,CLR,OVC,0.00,WeatherDisplay:10.37,2013-07-10 03:38:00,
2013-07-09 22:43:00,82.6,69.2,27.17,NW,315,0.0,0.0,64,0.00,CLR,OVC,0.00,WeatherDisplay:10.37,2013-07-10 03:43:00,
2013-07-09 22:48:00,82.2,69.3,27.17,NW,315,0.0,0.0,65,0.00,CLR,OVC,0.00,WeatherDisplay:10.37,2013-07-10 03:48:00,
2013-07-09 22:53:00,81.9,68.9,27.17,West,270,0.0,0.0,65,0.00,CLR,OVC,0.00,WeatherDisplay:10.37,2013-07-10 03:53:00,
2013-07-09 22:58:00,81.9,68.5,27.17,West,270,0.0,0.0,64,0.00,CLR,OVC,0.00,WeatherDisplay:10.37,2013-07-10 03:58:00,
2013-07-09 23:01:00,81.7,68.3,27.17,West,270,1.1,0.0,64,0.00,CLR,OVC,0.00,WeatherDisplay:10.37,2013-07-10 04:01:00,
2013-07-09 23:06:00,81.7,68.3,27.17,West,270,1.1,0.0,64,0.00,CLR,OVC,0.00,WeatherDisplay:10.37,2013-07-10 04:06:00,
2013-07-09 23:11:00,81.1,67.8,27.17,NW,315,1.1,0.0,64,0.00,CLR,OVC,0.00,WeatherDisplay:10.37,2013-07-10 04:11:00,
2013-07-09 23:16:00,81.0,67.6,27.18,North,0,0.0,0.0,64,0.00,CLR,OVC,0.00,WeatherDisplay:10.37,2013-07-10 04:16:00,
2013-07-09 23:21:00,80.8,67.5,27.18,NE,45,2.3,0.0,64,0.00,CLR,OVC,0.00,WeatherDisplay:10.37,2013-07-10 04:21:00,
2013-07-09 23:26:00,80.8,67.5,27.18,North,0,1.1,0.0,64,0.00,CLR,OVC,0.00,WeatherDisplay:10.37,2013-07-10 04:26:00,
2013-07-09 23:31:00,80.6,68.2,27.18,South,180,3.5,0.0,66,0.00,CLR,OVC,0.00,WeatherDisplay:10.37,2013-07-10 04:31:00,
2013-07-09 23:36:00,80.6,69.1,27.18,SW,225,1.1,0.0,68,0.00,CLR,OVC,0.00,WeatherDisplay:10.37,2013-07-10 04:36:00,
2013-07-09 23:41:00,80.2,70.0,27.18,North,0,3.5,3.5,71,0.00,CLR,OVC,0.00,WeatherDisplay:10.37,2013-07-10 04:41:00,
2013-07-09 23:46:00,80.2,70.0,27.18,NW,315,3.5,3.5,71,0.00,CLR,OVC,0.00,WeatherDisplay:10.37,2013-07-10 04:46:00,
2013-07-09 23:51:00,80.1,69.8,27.19,NE,45,10.4,10.4,71,0.00,CLR,OVC,0.00,WeatherDisplay:10.37,2013-07-10 04:51:00,
2013-07-09 23:56:00,79.9,70.0,27.19,North,0,5.8,5.8,72,0.00,CLR,OVC,0.00,WeatherDisplay:10.37,2013-07-10 04:56:00,